Weather History for PAJC - December, 2013

Change the Weather History Date:

Friday, December 20, 2013

  Actual Average Record
Temperature  
Mean Temperature 42 °F -  
Max Temperature 46 °F - - ()
Min Temperature 37 °F - - ()
Degree Days  
Heating Degree Days 24    
Moisture  
Dew Point 37 °F    
Average Humidity 85    
Maximum Humidity 100    
Minimum Humidity 57    
Precipitation  
Precipitation 0.02 in - - ()
Sea Level Pressure  
Sea Level Pressure 29.44 in    
Wind  
Wind Speed 5 mph (SE)    
Max Wind Speed 22 mph    
Max Gust Speed 38 mph    
Visibility 9 miles    
Events      
T = Trace of Precipitation, MM = Missing Value Source: NWS Daily Summary

Daily Weather History Graph

Daily Weather History Graph

Search for Another Location

Airport or City:

Trip Planner

Search our weather history database for the weather conditions in past years. The results will help you decide how hot, cold, wet, or windy it might be!

Date:

Astronomy

Dec. 20, 2013 Rise Set
Actual Time 10:05 AM AKST 4:57 PM AKST
Civil Twilight 9:16 AM AKST 5:45 PM AKST
Nautical Twilight 8:27 AM AKST 6:35 PM AKST
Astronomical Twilight 7:41 AM AKST 7:21 PM AKST
Moon 9:06 PM AKST (12/20) 11:30 AM AKST (12/20)
Length of Visible Light 8h 28m
Length of Day
6h 52m
Waning Gibbous, 89% of the Moon is Illuminated
Dec 20
Waning Gibbous
Dec 25
Last Quarter
Jan 1
New
Jan 7
First Quarter
Jan 15
Full

Hourly Weather History & Observations

Time (AKST) Temp. Windchill Dew Point Humidity Pressure Visibility Wind Dir Wind Speed Gust Speed Precip Events Conditions
12:16 AM 37.4 °F 34.9 °F 37.4 °F 100% 29.48 in 5.0 mi ESE 3.5 mph - N/A   Overcast
12:36 AM 37.4 °F 34.9 °F 37.4 °F 100% 29.48 in 5.0 mi West 3.5 mph - N/A   Overcast
12:56 AM 37.4 °F - 35.6 °F 93% 29.47 in 5.0 mi Calm Calm - N/A   Overcast
1:16 AM 37.4 °F - 37.4 °F 100% 29.47 in 1.8 mi Calm Calm - N/A   Overcast
1:36 AM 37.4 °F - 37.4 °F 100% 29.46 in 7.0 mi Calm Calm - N/A   Overcast
1:56 AM 39.2 °F 37.0 °F 39.2 °F 100% 29.46 in 10.0 mi SSE 3.5 mph - N/A   Overcast
2:16 AM 39.2 °F - 39.2 °F 100% 29.44 in 10.0 mi Calm Calm - 0.01 in   Overcast
2:36 AM 37.4 °F 32.1 °F 35.6 °F 93% 29.44 in 10.0 mi SSW 6.9 mph - 0.01 in   Overcast
2:56 AM 37.4 °F 32.8 °F 37.4 °F 100% 29.44 in 10.0 mi West 5.8 mph - 0.01 in   Overcast
3:16 AM 39.2 °F - 39.2 °F 100% 29.43 in 8.0 mi Calm Calm - N/A   Overcast
3:36 AM 39.2 °F 37.0 °F 39.2 °F 100% 29.43 in 6.0 mi North 3.5 mph - N/A   Overcast
3:56 AM 39.2 °F 34.2 °F 39.2 °F 100% 29.41 in 10.0 mi WSW 6.9 mph - N/A   Overcast
4:16 AM 39.2 °F - 39.2 °F 100% 29.41 in 10.0 mi Calm Calm - N/A   Overcast
4:36 AM 39.2 °F 35.0 °F 39.2 °F 100% 29.40 in 10.0 mi SSW 5.8 mph - N/A   Overcast
4:56 AM 39.2 °F 34.2 °F 39.2 °F 100% 29.40 in 9.0 mi SSE 6.9 mph - N/A   Overcast
5:16 AM 41.0 °F 35.2 °F 41.0 °F 100% 29.39 in 10.0 mi SSE 9.2 mph 16.1 mph N/A   Overcast
5:36 AM 39.2 °F 34.2 °F 37.4 °F 93% 29.38 in 10.0 mi SW 6.9 mph 17.3 mph N/A   Overcast
5:56 AM 39.2 °F 35.0 °F 37.4 °F 93% 29.39 in 10.0 mi South 5.8 mph - N/A   Overcast
6:16 AM 39.2 °F - 39.2 °F 100% 29.38 in 10.0 mi Calm Calm - N/A   Overcast
6:36 AM 39.2 °F 37.0 °F 37.4 °F 93% 29.38 in 10.0 mi ESE 3.5 mph - N/A   Overcast
6:56 AM 39.2 °F 35.9 °F 39.2 °F 100% 29.38 in 10.0 mi NE 4.6 mph - N/A   Overcast
7:16 AM 39.2 °F - 37.4 °F 93% 29.38 in 10.0 mi Calm Calm - N/A   Overcast
7:36 AM 37.4 °F 34.9 °F 37.4 °F 100% 29.37 in 10.0 mi NW 3.5 mph - N/A   Overcast
7:56 AM 37.4 °F - 35.6 °F 93% 29.38 in 10.0 mi Calm Calm - N/A   Mostly Cloudy
8:16 AM 39.2 °F 37.0 °F 39.2 °F 100% 29.38 in 10.0 mi SE 3.5 mph - N/A   Overcast
8:36 AM 39.2 °F 37.0 °F 39.2 °F 100% 29.38 in 10.0 mi SE 3.5 mph - N/A   Overcast
8:56 AM 39.2 °F - 39.2 °F 100% 29.39 in 10.0 mi Calm Calm - N/A   Overcast
9:16 AM 37.4 °F 32.1 °F 37.4 °F 100% 29.39 in 10.0 mi North 6.9 mph - N/A   Overcast
9:36 AM 37.4 °F 29.8 °F 37.4 °F 100% 29.38 in 10.0 mi NE 11.5 mph - N/A   Overcast
9:56 AM 39.2 °F 32.0 °F 37.4 °F 93% 29.39 in 8.0 mi NE 11.5 mph 17.3 mph N/A   Mostly Cloudy
10:16 AM 39.2 °F 34.2 °F 37.4 °F 93% 29.41 in 10.0 mi NNE 6.9 mph - N/A   Mostly Cloudy
10:36 AM 37.4 °F 34.9 °F 37.4 °F 100% 29.41 in 10.0 mi SE 3.5 mph - N/A   Mostly Cloudy
10:56 AM 37.4 °F - 37.4 °F 100% 29.42 in 10.0 mi Calm Calm - N/A   Scattered Clouds
11:16 AM 37.4 °F 34.9 °F 37.4 °F 100% 29.42 in 10.0 mi SSE 3.5 mph - N/A   Mostly Cloudy
11:36 AM 37.4 °F 34.9 °F 37.4 °F 100% 29.44 in 0.2 mi NE 3.5 mph - N/A   Overcast
11:56 AM 39.2 °F 33.6 °F 39.2 °F 100% 29.44 in 10.0 mi NE 8.1 mph - N/A   Partly Cloudy
12:16 PM 41.0 °F 39.0 °F 41.0 °F 100% 29.45 in 10.0 mi NNW 3.5 mph - N/A   Clear
12:36 PM 44.6 °F 37.4 °F 37.4 °F 76% 29.44 in 10.0 mi WSW 16.1 mph - N/A   Clear
12:56 PM 44.6 °F 38.1 °F 37.4 °F 76% 29.45 in 10.0 mi West 13.8 mph - N/A   Clear
1:16 PM 44.6 °F 40.7 °F 35.6 °F 71% 29.45 in 10.0 mi South 6.9 mph - N/A   Clear
1:36 PM 46.4 °F 40.1 °F 35.6 °F 66% 29.45 in 10.0 mi SW 15.0 mph 24.2 mph N/A   Partly Cloudy
1:56 PM 44.6 °F 38.4 °F 33.8 °F 66% 29.46 in 10.0 mi SW 12.7 mph 23.0 mph N/A   Partly Cloudy
2:16 PM 46.4 °F 41.9 °F 33.8 °F 62% 29.45 in 10.0 mi WNW 9.2 mph 29.9 mph 0.01 in   Partly Cloudy
2:36 PM 44.6 °F 40.2 °F 33.8 °F 66% 29.44 in 10.0 mi NW 8.1 mph 24.2 mph 0.01 in   Scattered Clouds
2:56 PM 44.6 °F - 33.8 °F 66% 29.44 in 10.0 mi Calm Calm - 0.01 in   Mostly Cloudy
3:16 PM 46.4 °F 42.9 °F 32.0 °F 57% 29.44 in 10.0 mi East 6.9 mph - N/A   Scattered Clouds
3:36 PM 46.4 °F 38.5 °F 33.8 °F 62% 29.44 in 10.0 mi South 21.9 mph 36.8 mph N/A   Clear
3:56 PM 46.4 °F 39.0 °F 35.6 °F 66% 29.45 in 10.0 mi SSE 19.6 mph 38.0 mph N/A   Clear
4:16 PM 46.4 °F 39.2 °F 35.6 °F 66% 29.45 in 10.0 mi SSE 18.4 mph 38.0 mph N/A   Clear
4:36 PM 46.4 °F 40.7 °F 35.6 °F 66% 29.46 in 10.0 mi South 12.7 mph 31.1 mph N/A   Partly Cloudy
4:56 PM 46.4 °F 40.7 °F 35.6 °F 66% 29.46 in 10.0 mi SW 12.7 mph 24.2 mph N/A   Partly Cloudy
5:16 PM 46.4 °F 45.2 °F 35.6 °F 66% 29.46 in 10.0 mi SW 3.5 mph 16.1 mph N/A   Scattered Clouds
5:36 PM 44.6 °F 40.7 °F 35.6 °F 71% 29.46 in 10.0 mi SE 6.9 mph - N/A   Scattered Clouds
5:56 PM 46.4 °F 44.3 °F 35.6 °F 66% 29.47 in 10.0 mi SSW 4.6 mph - N/A   Scattered Clouds
6:16 PM 46.4 °F 41.1 °F 35.6 °F 66% 29.47 in 10.0 mi WSW 11.5 mph 17.3 mph N/A   Mostly Cloudy
6:36 PM 44.6 °F 41.4 °F 35.6 °F 71% 29.48 in 10.0 mi WSW 5.8 mph 20.7 mph N/A   Scattered Clouds
6:56 PM 46.4 °F - 35.6 °F 66% 29.47 in 10.0 mi Calm Calm - N/A   Scattered Clouds
7:16 PM 44.6 °F 40.7 °F 35.6 °F 71% 29.46 in 10.0 mi East 6.9 mph 20.7 mph N/A   Mostly Cloudy
7:36 PM 44.6 °F 41.4 °F 35.6 °F 71% 29.47 in 10.0 mi East 5.8 mph - N/A   Mostly Cloudy
7:56 PM 42.8 °F 39.3 °F 33.8 °F 70% 29.47 in 10.0 mi NW 5.8 mph - N/A   Scattered Clouds
8:16 PM 42.8 °F 37.0 °F 35.6 °F 76% 29.47 in 10.0 mi NE 10.4 mph - N/A   Partly Cloudy
8:36 PM 42.8 °F 39.3 °F 35.6 °F 76% 29.47 in 10.0 mi ENE 5.8 mph - N/A   Partly Cloudy
8:56 PM 44.6 °F 40.2 °F 35.6 °F 71% 29.47 in 10.0 mi East 8.1 mph - N/A   Mostly Cloudy
9:16 PM 42.8 °F 40.1 °F 35.6 °F 76% 29.47 in 10.0 mi NW 4.6 mph - N/A   Scattered Clouds
9:36 PM 42.8 °F 37.0 °F 35.6 °F 76% 29.48 in 10.0 mi NNE 10.4 mph - N/A   Partly Cloudy
9:56 PM 42.8 °F 38.6 °F 35.6 °F 76% 29.48 in 10.0 mi NNE 6.9 mph - N/A   Partly Cloudy
10:16 PM 42.8 °F 39.3 °F 35.6 °F 76% 29.47 in 10.0 mi NE 5.8 mph - N/A   Partly Cloudy
10:36 PM 42.8 °F - 35.6 °F 76% 29.48 in 10.0 mi Calm Calm - N/A   Clear
10:56 PM 44.6 °F 43.1 °F 35.6 °F 71% 29.48 in 10.0 mi NW 3.5 mph - N/A   Scattered Clouds
11:16 PM 44.6 °F 43.1 °F 37.4 °F 76% 29.48 in 10.0 mi NE 3.5 mph - N/A   Mostly Cloudy
11:36 PM 42.8 °F 37.5 °F 35.6 °F 76% 29.48 in 10.0 mi NE 9.2 mph - N/A   Mostly Cloudy
11:56 PM 41.0 °F 35.8 °F 35.6 °F 81% 29.49 in 10.0 mi NNE 8.1 mph - N/A   Overcast